Time,TemperatureF,DewpointF,PressureIn,WindDirection,WindDirectionDegrees,WindSpeedMPH,WindSpeedGustMPH,Humidity,HourlyPrecipIn,Conditions,Clouds,dailyrainin,SoftwareType,DateUTC
2013-03-31 00:00:00,51.4,50.3,29.97,WSW,237,0.0,0.0,96,0.09,,,0.29,Wunderground v.1.15,2013-03-31 04:00:00,
2013-03-31 00:05:00,51.4,50.3,29.97,South,188,1.0,1.0,96,0.13,,,0.00,Wunderground v.1.15,2013-03-31 04:05:00,
2013-03-31 00:15:00,51.3,50.2,29.97,South,188,0.0,1.0,96,0.10,,,0.02,Wunderground v.1.15,2013-03-31 04:15:00,
2013-03-31 00:20:00,51.2,50.4,29.97,South,188,0.0,0.0,97,0.09,,,0.02,Wunderground v.1.15,2013-03-31 04:20:00,
2013-03-31 00:25:00,51.2,50.4,29.97,South,188,0.0,0.0,97,0.05,,,0.02,Wunderground v.1.15,2013-03-31 04:25:00,
2013-03-31 00:30:00,51.1,50.0,29.96,South,188,0.0,0.0,96,0.04,,,0.03,Wunderground v.1.15,2013-03-31 04:30:00,
2013-03-31 00:35:00,51.0,49.9,29.95,SE,138,1.0,3.0,96,0.04,,,0.03,Wunderground v.1.15,2013-03-31 04:35:00,
2013-03-31 00:40:00,51.0,49.9,29.95,SE,138,3.0,3.0,96,0.08,,,0.04,Wunderground v.1.15,2013-03-31 04:40:00,
2013-03-31 00:45:00,50.9,50.1,29.95,SE,137,1.0,3.0,97,0.07,,,0.04,Wunderground v.1.15,2013-03-31 04:45:00,
2013-03-31 00:50:00,50.9,50.1,29.95,SE,138,0.0,0.0,97,0.04,,,0.04,Wunderground v.1.15,2013-03-31 04:50:00,
2013-03-31 00:55:00,50.9,50.1,29.94,SE,138,0.0,0.0,97,0.00,,,0.04,Wunderground v.1.15,2013-03-31 04:55:00,
2013-03-31 01:00:00,50.8,50.0,29.93,SE,137,1.0,1.0,97,0.00,,,0.05,Wunderground v.1.15,2013-03-31 05:00:00,
2013-03-31 01:05:00,50.8,50.0,29.93,ESE,121,1.0,3.0,97,0.00,,,0.05,Wunderground v.1.15,2013-03-31 05:05:00,
2013-03-31 01:15:00,50.8,50.0,29.93,ESE,121,1.0,1.0,97,0.00,,,0.05,Wunderground v.1.15,2013-03-31 05:15:00,
2013-03-31 01:20:00,50.7,49.9,29.93,ESE,121,0.0,0.0,97,0.00,,,0.05,Wunderground v.1.15,2013-03-31 05:20:00,
2013-03-31 01:25:00,50.8,50.0,29.93,ESE,121,0.0,1.0,97,0.00,,,0.05,Wunderground v.1.15,2013-03-31 05:25:00,
2013-03-31 01:30:00,50.8,50.0,29.93,ESE,121,0.0,0.0,97,0.00,,,0.05,Wunderground v.1.15,2013-03-31 05:30:00,
2013-03-31 01:35:00,50.9,50.1,29.93,ESE,121,0.0,1.0,97,0.00,,,0.05,Wunderground v.1.15,2013-03-31 05:35:00,
2013-03-31 01:40:00,50.9,50.1,29.93,ESE,121,0.0,0.0,97,0.00,,,0.06,Wunderground v.1.15,2013-03-31 05:40:00,
2013-03-31 01:45:00,50.9,50.1,29.93,ESE,121,0.0,0.0,97,0.00,,,0.06,Wunderground v.1.15,2013-03-31 05:45:00,
2013-03-31 01:50:00,50.9,50.1,29.93,SE,140,0.0,2.0,97,0.00,,,0.06,Wunderground v.1.15,2013-03-31 05:50:00,
2013-03-31 01:55:00,51.0,50.2,29.93,SE,140,1.0,2.0,97,0.04,,,0.07,Wunderground v.1.15,2013-03-31 05:55:00,
2013-03-31 02:00:00,51.0,50.2,29.92,SE,139,1.0,3.0,97,0.04,,,0.07,Wunderground v.1.15,2013-03-31 06:00:00,
2013-03-31 02:05:00,50.9,50.1,29.93,SE,140,2.0,3.0,97,0.04,,,0.08,Wunderground v.1.15,2013-03-31 06:05:00,
2013-03-31 02:15:00,50.9,50.1,29.92,SE,138,1.0,1.0,97,0.04,,,0.08,Wunderground v.1.15,2013-03-31 06:15:00,
2013-03-31 02:20:00,50.9,50.1,29.91,SE,139,1.0,1.0,97,0.04,,,0.08,Wunderground v.1.15,2013-03-31 06:20:00,
2013-03-31 02:25:00,50.9,50.1,29.91,SE,139,1.0,1.0,97,0.00,,,0.08,Wunderground v.1.15,2013-03-31 06:25:00,
2013-03-31 02:30:00,50.9,50.1,29.91,SE,138,1.0,1.0,97,0.00,,,0.08,Wunderground v.1.15,2013-03-31 06:30:00,
2013-03-31 02:35:00,50.9,50.1,29.91,SE,138,0.0,1.0,97,0.00,,,0.08,Wunderground v.1.15,2013-03-31 06:35:00,
2013-03-31 02:40:00,51.0,50.2,29.91,South,188,1.0,1.0,97,0.00,,,0.08,Wunderground v.1.15,2013-03-31 06:40:00,
2013-03-31 02:45:00,51.1,50.0,29.91,SSW,192,1.0,1.0,96,0.00,,,0.09,Wunderground v.1.15,2013-03-31 06:45:00,
2013-03-31 02:50:00,51.2,50.1,29.90,SSW,196,1.0,3.0,96,0.15,,,0.10,Wunderground v.1.15,2013-03-31 06:50:00,
2013-03-31 02:55:00,51.3,50.2,29.90,SSW,209,0.0,3.0,96,0.09,,,0.10,Wunderground v.1.15,2013-03-31 06:55:00,
2013-03-31 03:00:00,51.3,49.9,29.90,SSW,209,0.0,0.0,95,0.05,,,0.10,Wunderground v.1.15,2013-03-31 07:00:00,
2013-03-31 03:05:00,51.4,50.0,29.90,SSW,209,0.0,0.0,95,0.00,,,0.10,Wunderground v.1.15,2013-03-31 07:05:00,
2013-03-31 03:15:00,51.4,50.0,29.90,WNW,284,0.0,0.0,95,0.00,,,0.11,Wunderground v.1.15,2013-03-31 07:15:00,
2013-03-31 03:20:00,51.4,50.0,29.89,WNW,284,0.0,0.0,95,0.09,,,0.12,Wunderground v.1.15,2013-03-31 07:20:00,
2013-03-31 03:25:00,51.4,50.0,29.89,WNW,284,0.0,0.0,95,0.08,,,0.12,Wunderground v.1.15,2013-03-31 07:25:00,
2013-03-31 03:30:00,51.3,49.9,29.88,WNW,284,0.0,0.0,95,0.05,,,0.12,Wunderground v.1.15,2013-03-31 07:30:00,
2013-03-31 03:40:00,51.2,49.8,29.88,WNW,284,0.0,0.0,95,0.00,,,0.12,Wunderground v.1.15,2013-03-31 07:40:00,
2013-03-31 03:45:00,51.2,49.8,29.88,WNW,284,0.0,0.0,95,0.00,,,0.12,Wunderground v.1.15,2013-03-31 07:45:00,
2013-03-31 03:50:00,51.2,50.1,29.88,WNW,284,0.0,0.0,96,0.00,,,0.13,Wunderground v.1.15,2013-03-31 07:50:00,
2013-03-31 03:55:00,51.1,50.0,29.88,WNW,284,0.0,0.0,96,0.00,,,0.13,Wunderground v.1.15,2013-03-31 07:55:00,
2013-03-31 04:00:00,51.1,50.0,29.88,WNW,284,0.0,0.0,96,0.00,,,0.13,Wunderground v.1.15,2013-03-31 08:00:00,
2013-03-31 04:05:00,51.1,50.0,29.88,WNW,284,0.0,0.0,96,0.05,,,0.14,Wunderground v.1.15,2013-03-31 08:05:00,
2013-03-31 04:10:00,51.1,50.0,29.88,WNW,284,0.0,0.0,96,0.05,,,0.14,Wunderground v.1.15,2013-03-31 08:10:00,
2013-03-31 04:15:00,51.1,50.0,29.88,WNW,284,0.0,0.0,96,0.04,,,0.14,Wunderground v.1.15,2013-03-31 08:15:00,
2013-03-31 04:20:00,51.0,49.9,29.87,WNW,284,0.0,0.0,96,0.00,,,0.14,Wunderground v.1.15,2013-03-31 08:20:00,
2013-03-31 04:25:00,51.0,49.9,29.87,WNW,284,0.0,0.0,96,0.00,,,0.15,Wunderground v.1.15,2013-03-31 08:25:00,
2013-03-31 04:30:00,51.0,49.9,29.88,WNW,284,0.0,0.0,96,0.00,,,0.15,Wunderground v.1.15,2013-03-31 08:30:00,
2013-03-31 04:35:00,51.1,50.0,29.87,West,268,1.0,1.0,96,0.00,,,0.15,Wunderground v.1.15,2013-03-31 08:35:00,
2013-03-31 04:40:00,51.1,50.0,29.87,West,268,1.0,1.0,96,0.00,,,0.15,Wunderground v.1.15,2013-03-31 08:40:00,
2013-03-31 04:45:00,51.1,50.0,29.86,SW,225,0.0,1.0,96,0.00,,,0.15,Wunderground v.1.15,2013-03-31 08:45:00,
2013-03-31 04:50:00,51.2,50.1,29.87,SW,225,0.0,0.0,96,0.00,,,0.15,Wunderground v.1.15,2013-03-31 08:50:00,
2013-03-31 04:55:00,51.2,50.1,29.87,SW,227,0.0,0.0,96,0.00,,,0.15,Wunderground v.1.15,2013-03-31 08:55:00,
2013-03-31 05:00:00,51.3,49.9,29.87,West,269,1.0,5.0,95,0.00,,,0.15,Wunderground v.1.15,2013-03-31 09:00:00,
2013-03-31 05:05:00,51.5,49.5,29.86,South,175,4.0,5.0,93,0.00,,,0.15,Wunderground v.1.15,2013-03-31 09:05:00,
2013-03-31 05:10:00,51.6,49.4,29.86,SW,230,4.0,4.0,92,0.00,,,0.15,Wunderground v.1.15,2013-03-31 09:10:00,
2013-03-31 05:15:00,51.7,49.5,29.86,SSW,210,2.0,4.0,92,0.00,,,0.15,Wunderground v.1.15,2013-03-31 09:15:00,
2013-03-31 05:20:00,51.6,49.1,29.86,SSW,196,1.0,3.0,91,0.00,,,0.15,Wunderground v.1.15,2013-03-31 09:20:00,
2013-03-31 05:30:00,51.9,49.4,29.85,West,267,2.0,2.0,91,0.00,,,0.15,Wunderground v.1.15,2013-03-31 09:30:00,
2013-03-31 05:35:00,51.9,49.4,29.85,WSW,244,1.0,2.0,91,0.00,,,0.15,Wunderground v.1.15,2013-03-31 09:35:00,
2013-03-31 05:40:00,51.9,49.4,29.85,West,272,1.0,1.0,91,0.00,,,0.15,Wunderground v.1.15,2013-03-31 09:40:00,
2013-03-31 05:45:00,51.9,49.4,29.85,West,272,1.0,1.0,91,0.00,,,0.15,Wunderground v.1.15,2013-03-31 09:45:00,
2013-03-31 05:50:00,51.9,49.4,29.85,West,264,1.0,1.0,91,0.00,,,0.15,Wunderground v.1.15,2013-03-31 09:50:00,
2013-03-31 05:55:00,51.9,49.6,29.85,WSW,251,2.0,2.0,92,0.00,,,0.15,Wunderground v.1.15,2013-03-31 09:55:00,
2013-03-31 06:00:00,51.9,49.6,29.85,West,259,2.0,2.0,92,0.00,,,0.15,Wunderground v.1.15,2013-03-31 10:00:00,
2013-03-31 06:05:00,51.8,49.8,29.85,West,270,2.0,2.0,93,0.00,,,0.15,Wunderground v.1.15,2013-03-31 10:05:00,
2013-03-31 06:15:00,51.8,49.8,29.85,WNW,298,1.0,1.0,93,0.00,,,0.15,Wunderground v.1.15,2013-03-31 10:15:00,
2013-03-31 06:20:00,51.9,49.9,29.84,WNW,284,2.0,2.0,93,0.00,,,0.15,Wunderground v.1.15,2013-03-31 10:20:00,
2013-03-31 06:25:00,51.9,50.2,29.84,WNW,284,1.0,2.0,94,0.00,,,0.15,Wunderground v.1.15,2013-03-31 10:25:00,
2013-03-31 06:30:00,51.8,50.1,29.84,WNW,283,0.0,2.0,94,0.00,,,0.15,Wunderground v.1.15,2013-03-31 10:30:00,
2013-03-31 06:35:00,51.8,50.1,29.84,WNW,283,0.0,2.0,94,0.00,,,0.15,Wunderground v.1.15,2013-03-31 10:35:00,
2013-03-31 06:45:00,51.7,50.0,29.85,WNW,283,0.0,0.0,94,0.00,,,0.15,Wunderground v.1.15,2013-03-31 10:45:00,
2013-03-31 06:50:00,51.6,49.9,29.85,WNW,283,0.0,0.0,94,0.00,,,0.15,Wunderground v.1.15,2013-03-31 10:50:00,
2013-03-31 06:55:00,51.5,50.1,29.85,WNW,283,0.0,0.0,95,0.00,,,0.15,Wunderground v.1.15,2013-03-31 10:55:00,
2013-03-31 07:00:00,51.5,50.1,29.85,WNW,283,0.0,0.0,95,0.00,,,0.15,Wunderground v.1.15,2013-03-31 11:00:00,
2013-03-31 07:06:00,51.5,50.1,29.85,WNW,283,0.0,0.0,95,0.00,,,0.15,Wunderground v.1.15,2013-03-31 11:06:00,
2013-03-31 07:10:00,51.4,50.0,29.85,WNW,283,0.0,0.0,95,0.00,,,0.15,Wunderground v.1.15,2013-03-31 11:10:00,
2013-03-31 07:15:00,51.4,50.0,29.85,WNW,283,0.0,0.0,95,0.00,,,0.15,Wunderground v.1.15,2013-03-31 11:15:00,
2013-03-31 07:20:00,51.4,50.0,29.85,WNW,283,0.0,0.0,95,0.00,,,0.15,Wunderground v.1.15,2013-03-31 11:20:00,
2013-03-31 07:25:00,51.4,50.0,29.85,WNW,283,0.0,0.0,95,0.00,,,0.15,Wunderground v.1.15,2013-03-31 11:25:00,
2013-03-31 07:30:00,51.4,50.0,29.85,WNW,283,0.0,0.0,95,0.00,,,0.15,Wunderground v.1.15,2013-03-31 11:30:00,
2013-03-31 07:35:00,51.4,50.3,29.85,WNW,283,0.0,0.0,96,0.00,,,0.15,Wunderground v.1.15,2013-03-31 11:35:00,
2013-03-31 07:40:00,51.4,50.3,29.86,WNW,283,0.0,0.0,96,0.00,,,0.15,Wunderground v.1.15,2013-03-31 11:40:00,
2013-03-31 07:45:00,51.4,50.3,29.85,WNW,283,0.0,0.0,96,0.00,,,0.15,Wunderground v.1.15,2013-03-31 11:45:00,
2013-03-31 07:50:00,51.4,50.3,29.86,West,275,0.0,0.0,96,0.00,,,0.15,Wunderground v.1.15,2013-03-31 11:50:00,
2013-03-31 07:55:00,51.4,50.3,29.86,WSW,257,0.0,0.0,96,0.00,,,0.15,Wunderground v.1.15,2013-03-31 11:55:00,
2013-03-31 08:00:00,51.4,50.3,29.86,WSW,257,0.0,0.0,96,0.00,,,0.15,Wunderground v.1.15,2013-03-31 12:00:00,
2013-03-31 08:05:00,51.4,50.3,29.86,WSW,257,0.0,0.0,96,0.00,,,0.15,Wunderground v.1.15,2013-03-31 12:05:00,
2013-03-31 08:15:00,51.5,50.4,29.87,WSW,257,0.0,0.0,96,0.00,,,0.15,Wunderground v.1.15,2013-03-31 12:15:00,
2013-03-31 08:20:00,51.5,50.4,29.87,WSW,257,0.0,0.0,96,0.00,,,0.15,Wunderground v.1.15,2013-03-31 12:20:00,
2013-03-31 08:25:00,51.5,50.4,29.87,WSW,257,0.0,0.0,96,0.00,,,0.15,Wunderground v.1.15,2013-03-31 12:25:00,
2013-03-31 08:30:00,51.6,50.5,29.87,WSW,257,0.0,0.0,96,0.00,,,0.15,Wunderground v.1.15,2013-03-31 12:30:00,
2013-03-31 08:35:00,51.7,50.6,29.87,WSW,257,0.0,0.0,96,0.00,,,0.15,Wunderground v.1.15,2013-03-31 12:35:00,
2013-03-31 08:40:00,51.8,51.0,29.87,WSW,257,0.0,0.0,97,0.00,,,0.15,Wunderground v.1.15,2013-03-31 12:40:00,
2013-03-31 08:45:00,52.0,51.2,29.87,WSW,257,0.0,0.0,97,0.00,,,0.15,Wunderground v.1.15,2013-03-31 12:45:00,
2013-03-31 08:50:00,52.1,51.3,29.87,WSW,257,0.0,0.0,97,0.00,,,0.15,Wunderground v.1.15,2013-03-31 12:50:00,
2013-03-31 08:55:00,52.3,51.5,29.87,WSW,257,0.0,0.0,97,0.00,,,0.15,Wunderground v.1.15,2013-03-31 12:55:00,
2013-03-31 09:00:00,52.4,51.6,29.88,WSW,257,0.0,0.0,97,0.00,,,0.15,Wunderground v.1.15,2013-03-31 13:00:00,
2013-03-31 09:05:00,52.6,51.8,29.87,WSW,257,0.0,0.0,97,0.00,,,0.15,Wunderground v.1.15,2013-03-31 13:05:00,
2013-03-31 09:10:00,52.7,51.9,29.87,WSW,257,0.0,0.0,97,0.00,,,0.15,Wunderground v.1.15,2013-03-31 13:10:00,
2013-03-31 09:15:00,52.9,52.1,29.87,WSW,257,0.0,0.0,97,0.00,,,0.15,Wunderground v.1.15,2013-03-31 13:15:00,
2013-03-31 09:20:00,52.9,51.8,29.88,WSW,257,0.0,0.0,96,0.00,,,0.15,Wunderground v.1.15,2013-03-31 13:20:00,
2013-03-31 09:25:00,53.0,51.9,29.87,WSW,257,0.0,0.0,96,0.00,,,0.15,Wunderground v.1.15,2013-03-31 13:25:00,
2013-03-31 09:30:00,53.1,52.0,29.88,WSW,257,0.0,0.0,96,0.00,,,0.15,Wunderground v.1.15,2013-03-31 13:30:00,
2013-03-31 09:35:00,53.2,52.1,29.88,WSW,257,0.0,0.0,96,0.00,,,0.15,Wunderground v.1.15,2013-03-31 13:35:00,
2013-03-31 09:40:00,53.2,52.1,29.88,WSW,257,0.0,0.0,96,0.00,,,0.15,Wunderground v.1.15,2013-03-31 13:40:00,
2013-03-31 09:50:00,53.3,51.9,29.88,WSW,257,0.0,0.0,95,0.00,,,0.15,Wunderground v.1.15,2013-03-31 13:50:00,
2013-03-31 09:55:00,53.3,51.9,29.88,WSW,257,0.0,0.0,95,0.00,,,0.15,Wunderground v.1.15,2013-03-31 13:55:00,
2013-03-31 10:00:00,53.4,52.0,29.88,WSW,257,0.0,0.0,95,0.00,,,0.15,Wunderground v.1.15,2013-03-31 14:00:00,
2013-03-31 10:05:00,53.6,52.2,29.88,WSW,257,0.0,0.0,95,0.00,,,0.15,Wunderground v.1.15,2013-03-31 14:05:00,
2013-03-31 10:15:00,53.6,52.2,29.88,WSW,257,0.0,0.0,95,0.00,,,0.15,Wunderground v.1.15,2013-03-31 14:15:00,
2013-03-31 10:20:00,53.7,52.3,29.88,WSW,257,0.0,0.0,95,0.00,,,0.15,Wunderground v.1.15,2013-03-31 14:20:00,
2013-03-31 10:25:00,53.9,52.5,29.88,WSW,257,0.0,0.0,95,0.00,,,0.15,Wunderground v.1.15,2013-03-31 14:25:00,
2013-03-31 10:30:00,54.2,52.8,29.88,WSW,257,0.0,0.0,95,0.00,,,0.15,Wunderground v.1.15,2013-03-31 14:30:00,
2013-03-31 10:35:00,54.6,53.2,29.88,WSW,257,0.0,0.0,95,0.00,,,0.15,Wunderground v.1.15,2013-03-31 14:35:00,
2013-03-31 10:40:00,54.9,53.2,29.88,WSW,257,0.0,2.0,94,0.00,,,0.15,Wunderground v.1.15,2013-03-31 14:40:00,
2013-03-31 10:45:00,55.0,52.7,29.88,WSW,257,0.0,2.0,92,0.00,,,0.15,Wunderground v.1.15,2013-03-31 14:45:00,
2013-03-31 10:55:00,55.2,52.0,29.88,West,278,0.0,2.0,89,0.00,,,0.15,Wunderground v.1.15,2013-03-31 14:55:00,
2013-03-31 11:00:00,55.1,51.6,29.87,West,269,1.0,1.0,88,0.00,,,0.15,Wunderground v.1.15,2013-03-31 15:00:00,
2013-03-31 11:05:00,55.1,51.3,29.86,West,269,1.0,1.0,87,0.00,,,0.15,Wunderground v.1.15,2013-03-31 15:05:00,
2013-03-31 11:10:00,55.3,51.5,29.86,West,275,0.0,0.0,87,0.00,,,0.15,Wunderground v.1.15,2013-03-31 15:10:00,
2013-03-31 11:15:00,55.8,53.2,29.86,SW,222,0.0,7.0,91,0.00,,,0.15,Wunderground v.1.15,2013-03-31 15:15:00,
2013-03-31 11:20:00,56.2,53.0,29.86,NW,308,0.0,1.0,89,0.00,,,0.15,Wunderground v.1.15,2013-03-31 15:20:00,
2013-03-31 11:25:00,56.8,53.6,29.86,WNW,296,1.0,2.0,89,0.00,,,0.15,Wunderground v.1.15,2013-03-31 15:25:00,
2013-03-31 11:30:00,57.5,53.7,29.86,WNW,295,0.0,0.0,87,0.00,,,0.15,Wunderground v.1.15,2013-03-31 15:30:00,
2013-03-31 11:35:00,57.9,53.4,29.86,WNW,296,0.0,0.0,85,0.00,,,0.15,Wunderground v.1.15,2013-03-31 15:35:00,
2013-03-31 11:40:00,58.3,53.5,29.86,WNW,296,0.0,0.0,84,0.00,,,0.15,Wunderground v.1.15,2013-03-31 15:40:00,
2013-03-31 11:45:00,58.8,54.6,29.87,WNW,286,0.0,0.0,86,0.00,,,0.15,Wunderground v.1.15,2013-03-31 15:45:00,
2013-03-31 11:50:00,59.0,53.5,29.87,WNW,286,0.0,0.0,82,0.00,,,0.15,Wunderground v.1.15,2013-03-31 15:50:00,
2013-03-31 11:55:00,59.0,53.2,29.87,WNW,286,0.0,0.0,81,0.00,,,0.15,Wunderground v.1.15,2013-03-31 15:55:00,
2013-03-31 12:00:00,59.0,53.5,29.87,WNW,286,0.0,0.0,82,0.00,,,0.15,Wunderground v.1.15,2013-03-31 16:00:00,
2013-03-31 12:05:00,59.0,53.2,29.87,WNW,286,0.0,0.0,81,0.00,,,0.15,Wunderground v.1.15,2013-03-31 16:05:00,
2013-03-31 12:10:00,58.7,52.5,29.87,WNW,284,0.0,0.0,80,0.00,,,0.15,Wunderground v.1.15,2013-03-31 16:10:00,
2013-03-31 12:15:00,58.8,53.0,29.87,WNW,284,0.0,2.0,81,0.00,,,0.15,Wunderground v.1.15,2013-03-31 16:15:00,
2013-03-31 12:20:00,59.0,53.8,29.87,West,276,0.0,1.0,83,0.00,,,0.15,Wunderground v.1.15,2013-03-31 16:20:00,
2013-03-31 12:25:00,59.0,53.5,29.87,West,275,0.0,1.0,82,0.00,,,0.15,Wunderground v.1.15,2013-03-31 16:25:00,
2013-03-31 12:30:00,59.4,53.9,29.87,West,275,0.0,0.0,82,0.00,,,0.15,Wunderground v.1.15,2013-03-31 16:30:00,
2013-03-31 12:35:00,59.6,53.1,29.87,West,273,0.0,0.0,79,0.00,,,0.15,Wunderground v.1.15,2013-03-31 16:35:00,
2013-03-31 12:40:00,59.5,52.6,29.87,WSW,252,0.0,0.0,78,0.00,,,0.15,Wunderground v.1.15,2013-03-31 16:40:00,
2013-03-31 12:45:00,59.1,52.2,29.87,West,264,1.0,2.0,78,0.00,,,0.15,Wunderground v.1.15,2013-03-31 16:45:00,
2013-03-31 12:50:00,59.0,51.8,29.88,West,267,1.0,1.0,77,0.00,,,0.15,Wunderground v.1.15,2013-03-31 16:50:00,
2013-03-31 12:55:00,58.8,52.6,29.87,WSW,252,1.0,1.0,80,0.00,,,0.15,Wunderground v.1.15,2013-03-31 16:55:00,
2013-03-31 13:00:00,58.6,52.1,29.86,WSW,252,0.0,0.0,79,0.00,,,0.15,Wunderground v.1.15,2013-03-31 17:00:00,
2013-03-31 13:05:00,58.5,52.0,29.86,WSW,250,0.0,2.0,79,0.00,,,0.15,Wunderground v.1.15,2013-03-31 17:05:00,
2013-03-31 13:10:00,58.4,51.2,29.85,SW,230,1.0,1.0,77,0.00,,,0.15,Wunderground v.1.15,2013-03-31 17:10:00,
2013-03-31 13:15:00,59.0,52.8,29.85,SW,230,1.0,1.0,80,0.00,,,0.15,Wunderground v.1.15,2013-03-31 17:15:00,
2013-03-31 13:20:00,59.5,53.0,29.85,SW,230,0.0,0.0,79,0.00,,,0.15,Wunderground v.1.15,2013-03-31 17:20:00,
2013-03-31 13:25:00,59.8,53.3,29.85,SW,232,0.0,0.0,79,0.00,,,0.15,Wunderground v.1.15,2013-03-31 17:25:00,
2013-03-31 13:30:00,60.0,52.8,29.85,SW,232,0.0,0.0,77,0.00,,,0.15,Wunderground v.1.15,2013-03-31 17:30:00,
2013-03-31 13:35:00,59.9,52.3,29.84,WNW,288,1.0,1.0,76,0.00,,,0.15,Wunderground v.1.15,2013-03-31 17:35:00,
2013-03-31 13:40:00,60.3,52.7,29.84,WNW,287,1.0,1.0,76,0.00,,,0.15,Wunderground v.1.15,2013-03-31 17:40:00,
2013-03-31 13:45:00,61.0,51.5,29.84,West,267,1.0,1.0,71,0.00,,,0.15,Wunderground v.1.15,2013-03-31 17:45:00,
2013-03-31 13:50:00,61.6,54.3,29.84,West,267,1.0,1.0,77,0.00,,,0.15,Wunderground v.1.15,2013-03-31 17:50:00,
2013-03-31 13:55:00,61.9,52.4,29.84,WSW,258,1.0,1.0,71,0.00,,,0.15,Wunderground v.1.15,2013-03-31 17:55:00,
2013-03-31 14:00:00,61.6,52.1,29.84,West,264,0.0,0.0,71,0.00,,,0.15,Wunderground v.1.15,2013-03-31 18:00:00,
2013-03-31 14:05:00,61.4,51.9,29.84,West,265,0.0,0.0,71,0.00,,,0.15,Wunderground v.1.15,2013-03-31 18:05:00,
2013-03-31 14:15:00,60.6,50.8,29.84,West,281,0.0,0.0,70,0.00,,,0.15,Wunderground v.1.15,2013-03-31 18:15:00,
2013-03-31 14:25:00,60.1,51.8,29.84,WNW,283,0.0,1.0,74,0.00,,,0.15,Wunderground v.1.15,2013-03-31 18:25:00,
2013-03-31 14:30:00,59.9,51.6,29.84,South,188,1.0,1.0,74,0.00,,,0.15,Wunderground v.1.15,2013-03-31 18:30:00,
2013-03-31 14:35:00,60.0,52.8,29.84,South,188,1.0,1.0,77,0.00,,,0.15,Wunderground v.1.15,2013-03-31 18:35:00,
2013-03-31 14:40:00,59.9,52.0,29.83,South,188,0.0,0.0,75,0.00,,,0.15,Wunderground v.1.15,2013-03-31 18:40:00,
2013-03-31 14:45:00,59.9,52.0,29.83,South,188,0.0,0.0,75,0.00,,,0.15,Wunderground v.1.15,2013-03-31 18:45:00,
2013-03-31 14:55:00,59.3,51.7,29.84,SSW,194,0.0,0.0,76,0.00,,,0.15,Wunderground v.1.15,2013-03-31 18:55:00,
2013-03-31 15:00:00,59.0,52.1,29.84,SSW,194,0.0,0.0,78,0.00,,,0.16,Wunderground v.1.15,2013-03-31 19:00:00,
2013-03-31 15:05:00,58.6,52.4,29.84,West,275,0.0,0.0,80,0.00,,,0.16,Wunderground v.1.15,2013-03-31 19:05:00,
2013-03-31 15:10:00,57.8,52.7,29.84,West,269,1.0,1.0,83,0.05,,,0.17,Wunderground v.1.15,2013-03-31 19:10:00,
2013-03-31 15:15:00,57.0,52.9,29.84,West,270,0.0,1.0,86,0.15,,,0.18,Wunderground v.1.15,2013-03-31 19:15:00,
2013-03-31 15:20:00,56.5,52.7,29.84,West,269,0.0,0.0,87,0.07,,,0.18,Wunderground v.1.15,2013-03-31 19:20:00,
2013-03-31 15:25:00,56.1,52.9,29.84,West,269,0.0,0.0,89,0.05,,,0.18,Wunderground v.1.15,2013-03-31 19:25:00,
2013-03-31 15:30:00,55.8,52.6,29.84,West,271,0.0,0.0,89,0.05,,,0.18,Wunderground v.1.15,2013-03-31 19:30:00,
2013-03-31 15:35:00,55.8,53.2,29.84,West,270,0.0,0.0,91,0.05,,,0.18,Wunderground v.1.15,2013-03-31 19:35:00,
2013-03-31 15:40:00,55.7,53.4,29.83,West,271,0.0,0.0,92,0.04,,,0.18,Wunderground v.1.15,2013-03-31 19:40:00,
2013-03-31 15:45:00,55.8,53.5,29.83,West,269,0.0,0.0,92,0.00,,,0.18,Wunderground v.1.15,2013-03-31 19:45:00,
2013-03-31 15:50:00,55.9,53.9,29.83,West,269,0.0,0.0,93,0.00,,,0.18,Wunderground v.1.15,2013-03-31 19:50:00,
2013-03-31 15:55:00,55.9,53.6,29.83,West,270,0.0,0.0,92,0.00,,,0.18,Wunderground v.1.15,2013-03-31 19:55:00,
2013-03-31 16:00:00,55.9,53.6,29.83,West,269,0.0,0.0,92,0.00,,,0.18,Wunderground v.1.15,2013-03-31 20:00:00,
2013-03-31 16:05:00,56.0,54.0,29.83,West,269,0.0,0.0,93,0.00,,,0.18,Wunderground v.1.15,2013-03-31 20:05:00,
2013-03-31 16:10:00,56.0,53.7,29.82,West,269,0.0,0.0,92,0.00,,,0.18,Wunderground v.1.15,2013-03-31 20:10:00,
2013-03-31 16:15:00,55.9,53.3,29.81,West,270,0.0,0.0,91,0.00,,,0.18,Wunderground v.1.15,2013-03-31 20:15:00,
2013-03-31 16:25:00,56.4,53.8,29.81,SW,226,0.0,0.0,91,0.00,,,0.18,Wunderground v.1.15,2013-03-31 20:25:00,
2013-03-31 16:30:00,56.6,53.7,29.80,SW,226,0.0,0.0,90,0.00,,,0.18,Wunderground v.1.15,2013-03-31 20:30:00,
2013-03-31 16:35:00,56.9,54.6,29.80,SW,227,0.0,0.0,92,0.00,,,0.18,Wunderground v.1.15,2013-03-31 20:35:00,
2013-03-31 16:40:00,57.1,54.5,29.80,SW,227,0.0,0.0,91,0.00,,,0.18,Wunderground v.1.15,2013-03-31 20:40:00,
2013-03-31 16:45:00,57.2,54.3,29.81,SW,226,0.0,0.0,90,0.00,,,0.18,Wunderground v.1.15,2013-03-31 20:45:00,
2013-03-31 16:50:00,57.3,54.4,29.81,SW,227,0.0,0.0,90,0.00,,,0.18,Wunderground v.1.15,2013-03-31 20:50:00,
2013-03-31 16:55:00,57.1,53.0,29.81,NW,311,1.0,1.0,86,0.00,,,0.18,Wunderground v.1.15,2013-03-31 20:55:00,
2013-03-31 17:00:00,57.0,53.2,29.81,West,273,1.0,1.0,87,0.00,,,0.18,Wunderground v.1.15,2013-03-31 21:00:00,
2013-03-31 17:05:00,56.9,53.1,29.81,West,273,1.0,1.0,87,0.00,,,0.18,Wunderground v.1.15,2013-03-31 21:05:00,
2013-03-31 17:10:00,56.8,53.3,29.82,West,272,0.0,0.0,88,0.00,,,0.18,Wunderground v.1.15,2013-03-31 21:10:00,
2013-03-31 17:15:00,56.8,53.0,29.82,West,273,0.0,0.0,87,0.00,,,0.18,Wunderground v.1.15,2013-03-31 21:15:00,
2013-03-31 17:25:00,56.7,53.5,29.82,West,272,0.0,0.0,89,0.00,,,0.18,Wunderground v.1.15,2013-03-31 21:25:00,
2013-03-31 17:30:00,56.7,53.2,29.82,West,273,0.0,0.0,88,0.00,,,0.18,Wunderground v.1.15,2013-03-31 21:30:00,
2013-03-31 17:35:00,56.7,53.2,29.82,West,272,0.0,0.0,88,0.00,,,0.18,Wunderground v.1.15,2013-03-31 21:35:00,
2013-03-31 17:40:00,56.7,53.2,29.82,West,272,0.0,0.0,88,0.00,,,0.18,Wunderground v.1.15,2013-03-31 21:40:00,
2013-03-31 17:45:00,56.6,53.4,29.82,West,272,0.0,0.0,89,0.00,,,0.18,Wunderground v.1.15,2013-03-31 21:45:00,
2013-03-31 17:50:00,56.5,53.3,29.81,West,272,0.0,0.0,89,0.00,,,0.19,Wunderground v.1.15,2013-03-31 21:50:00,
2013-03-31 17:55:00,56.4,53.5,29.81,West,272,0.0,0.0,90,0.00,,,0.19,Wunderground v.1.15,2013-03-31 21:55:00,
2013-03-31 18:00:00,56.4,53.5,29.81,West,272,0.0,0.0,90,0.00,,,0.19,Wunderground v.1.15,2013-03-31 22:00:00,
2013-03-31 18:05:00,56.3,53.4,29.81,West,272,0.0,0.0,90,0.00,,,0.19,Wunderground v.1.15,2013-03-31 22:05:00,
2013-03-31 18:10:00,56.3,53.4,29.81,West,272,0.0,0.0,90,0.00,,,0.19,Wunderground v.1.15,2013-03-31 22:10:00,
2013-03-31 18:15:00,56.2,53.3,29.81,West,272,0.0,0.0,90,0.00,,,0.19,Wunderground v.1.15,2013-03-31 22:15:00,
2013-03-31 18:20:00,56.2,52.7,29.81,West,269,0.0,0.0,88,0.00,,,0.19,Wunderground v.1.15,2013-03-31 22:20:00,
2013-03-31 18:25:00,56.3,53.1,29.81,West,269,0.0,0.0,89,0.00,,,0.19,Wunderground v.1.15,2013-03-31 22:25:00,
2013-03-31 18:30:00,56.3,53.4,29.81,West,269,0.0,0.0,90,0.00,,,0.19,Wunderground v.1.15,2013-03-31 22:30:00,
2013-03-31 18:35:00,56.3,53.4,29.81,West,269,0.0,0.0,90,0.00,,,0.19,Wunderground v.1.15,2013-03-31 22:35:00,
2013-03-31 18:40:00,56.2,53.3,29.81,West,269,0.0,0.0,90,0.00,,,0.19,Wunderground v.1.15,2013-03-31 22:40:00,
2013-03-31 18:45:00,56.1,53.5,29.81,West,269,0.0,0.0,91,0.00,,,0.19,Wunderground v.1.15,2013-03-31 22:45:00,
2013-03-31 18:50:00,56.0,53.4,29.81,West,269,0.0,0.0,91,0.00,,,0.19,Wunderground v.1.15,2013-03-31 22:50:00,
2013-03-31 18:55:00,55.8,53.2,29.81,West,269,0.0,0.0,91,0.00,,,0.19,Wunderground v.1.15,2013-03-31 22:55:00,
2013-03-31 19:05:00,55.5,53.2,29.81,West,269,0.0,0.0,92,0.00,,,0.19,Wunderground v.1.15,2013-03-31 23:05:00,
2013-03-31 19:10:00,55.4,53.4,29.81,West,269,0.0,0.0,93,0.00,,,0.19,Wunderground v.1.15,2013-03-31 23:10:00,
2013-03-31 19:15:00,55.3,53.3,29.81,West,269,0.0,0.0,93,0.00,,,0.19,Wunderground v.1.15,2013-03-31 23:15:00,
2013-03-31 19:25:00,55.0,53.0,29.81,West,269,0.0,0.0,93,0.00,,,0.19,Wunderground v.1.15,2013-03-31 23:25:00,
2013-03-31 19:30:00,54.8,53.1,29.81,West,269,0.0,0.0,94,0.00,,,0.20,Wunderground v.1.15,2013-03-31 23:30:00,
2013-03-31 19:35:00,54.7,53.0,29.81,West,269,0.0,0.0,94,0.00,,,0.20,Wunderground v.1.15,2013-03-31 23:35:00,
2013-03-31 19:45:00,54.5,52.8,29.81,West,269,0.0,0.0,94,0.00,,,0.21,Wunderground v.1.15,2013-03-31 23:45:00,
2013-03-31 19:50:00,54.4,53.0,29.81,West,269,0.0,0.0,95,0.00,,,0.21,Wunderground v.1.15,2013-03-31 23:50:00,
2013-03-31 19:55:00,54.3,52.9,29.81,West,269,0.0,0.0,95,0.00,,,0.21,Wunderground v.1.15,2013-03-31 23:55:00,
2013-03-31 20:00:00,54.2,52.8,29.81,West,269,0.0,0.0,95,0.00,,,0.21,Wunderground v.1.15,2013-04-01 00:00:00,
2013-03-31 20:05:00,54.1,52.7,29.81,West,269,0.0,0.0,95,0.00,,,0.21,Wunderground v.1.15,2013-04-01 00:05:00,
2013-03-31 20:10:00,54.0,52.6,29.81,West,269,0.0,0.0,95,0.00,,,0.22,Wunderground v.1.15,2013-04-01 00:10:00,
2013-03-31 20:15:00,54.0,52.6,29.81,West,269,0.0,0.0,95,0.00,,,0.22,Wunderground v.1.15,2013-04-01 00:15:00,
2013-03-31 20:20:00,53.9,52.5,29.81,West,269,0.0,0.0,95,0.08,,,0.23,Wunderground v.1.15,2013-04-01 00:20:00,
2013-03-31 20:25:00,53.8,52.4,29.81,West,269,0.0,0.0,95,0.08,,,0.23,Wunderground v.1.15,2013-04-01 00:25:00,
2013-03-31 20:30:00,53.8,52.4,29.81,West,269,0.0,0.0,95,0.05,,,0.23,Wunderground v.1.15,2013-04-01 00:30:00,
2013-03-31 20:35:00,53.7,52.3,29.81,West,269,0.0,0.0,95,0.00,,,0.23,Wunderground v.1.15,2013-04-01 00:35:00,
2013-03-31 20:40:00,53.7,52.3,29.81,West,269,0.0,0.0,95,0.00,,,0.23,Wunderground v.1.15,2013-04-01 00:40:00,
2013-03-31 20:45:00,53.6,52.5,29.81,West,269,0.0,0.0,96,0.00,,,0.23,Wunderground v.1.15,2013-04-01 00:45:00,
2013-03-31 20:55:00,53.5,52.4,29.81,West,269,0.0,0.0,96,0.00,,,0.23,Wunderground v.1.15,2013-04-01 00:55:00,
2013-03-31 21:00:00,53.5,52.4,29.82,West,269,0.0,0.0,96,0.00,,,0.24,Wunderground v.1.15,2013-04-01 01:00:00,
2013-03-31 21:05:00,53.5,52.4,29.81,West,269,0.0,0.0,96,0.00,,,0.24,Wunderground v.1.15,2013-04-01 01:05:00,
2013-03-31 21:10:00,53.5,52.4,29.82,West,269,0.0,0.0,96,0.00,,,0.24,Wunderground v.1.15,2013-04-01 01:10:00,
2013-03-31 21:15:00,53.5,52.4,29.82,West,269,0.0,0.0,96,0.00,,,0.24,Wunderground v.1.15,2013-04-01 01:15:00,
2013-03-31 21:20:00,53.5,52.4,29.82,West,269,0.0,0.0,96,0.00,,,0.25,Wunderground v.1.15,2013-04-01 01:20:00,
2013-03-31 21:25:00,53.5,52.4,29.82,West,269,0.0,0.0,96,0.00,,,0.25,Wunderground v.1.15,2013-04-01 01:25:00,
2013-03-31 21:30:00,53.5,52.4,29.82,West,269,0.0,0.0,96,0.00,,,0.25,Wunderground v.1.15,2013-04-01 01:30:00,
2013-03-31 21:35:00,53.5,52.4,29.83,West,269,0.0,0.0,96,0.00,,,0.25,Wunderground v.1.15,2013-04-01 01:35:00,
2013-03-31 21:40:00,53.5,52.4,29.83,West,269,0.0,0.0,96,0.00,,,0.25,Wunderground v.1.15,2013-04-01 01:40:00,
2013-03-31 21:45:00,53.5,52.4,29.83,West,269,0.0,0.0,96,0.00,,,0.25,Wunderground v.1.15,2013-04-01 01:45:00,
2013-03-31 21:50:00,53.5,52.4,29.83,West,269,0.0,0.0,96,0.00,,,0.26,Wunderground v.1.15,2013-04-01 01:50:00,
2013-03-31 21:55:00,53.4,52.3,29.83,West,269,0.0,0.0,96,0.00,,,0.26,Wunderground v.1.15,2013-04-01 01:55:00,
2013-03-31 22:00:00,53.4,52.3,29.83,West,269,0.0,0.0,96,0.00,,,0.26,Wunderground v.1.15,2013-04-01 02:00:00,
2013-03-31 22:05:00,53.4,52.6,29.83,West,269,0.0,0.0,97,0.00,,,0.26,Wunderground v.1.15,2013-04-01 02:05:00,
2013-03-31 22:10:00,53.4,52.6,29.83,West,269,0.0,0.0,97,0.00,,,0.26,Wunderground v.1.15,2013-04-01 02:10:00,
2013-03-31 22:15:00,53.4,52.6,29.83,West,269,0.0,0.0,97,0.00,,,0.26,Wunderground v.1.15,2013-04-01 02:15:00,
2013-03-31 22:20:00,53.3,52.5,29.83,West,269,0.0,0.0,97,0.00,,,0.27,Wunderground v.1.15,2013-04-01 02:20:00,
2013-03-31 22:25:00,53.3,52.2,29.83,West,269,0.0,0.0,96,0.30,,,0.29,Wunderground v.1.15,2013-04-01 02:25:00,
2013-03-31 22:30:00,53.3,52.5,29.83,West,269,0.0,0.0,97,0.11,,,0.29,Wunderground v.1.15,2013-04-01 02:30:00,
2013-03-31 22:35:00,53.3,52.5,29.83,West,269,0.0,0.0,97,0.20,,,0.31,Wunderground v.1.15,2013-04-01 02:35:00,
2013-03-31 22:40:00,53.2,52.4,29.83,West,269,0.0,0.0,97,0.13,,,0.32,Wunderground v.1.15,2013-04-01 02:40:00,
2013-03-31 22:45:00,53.2,52.4,29.83,West,269,0.0,0.0,97,0.55,,,0.35,Wunderground v.1.15,2013-04-01 02:45:00,
2013-03-31 22:50:00,53.1,52.3,29.83,West,269,0.0,0.0,97,0.19,,,0.36,Wunderground v.1.15,2013-04-01 02:50:00,
2013-03-31 22:55:00,53.1,52.3,29.83,West,269,0.0,0.0,97,0.14,,,0.37,Wunderground v.1.15,2013-04-01 02:55:00,
2013-03-31 23:00:00,53.0,52.2,29.83,West,269,0.0,0.0,97,0.06,,,0.37,Wunderground v.1.15,2013-04-01 03:00:00,
2013-03-31 23:05:00,53.0,51.9,29.83,West,269,0.0,0.0,96,0.04,,,0.37,Wunderground v.1.15,2013-04-01 03:05:00,
2013-03-31 23:10:00,53.0,52.2,29.83,West,269,0.0,0.0,97,0.00,,,0.37,Wunderground v.1.15,2013-04-01 03:10:00,
2013-03-31 23:15:00,52.9,52.1,29.83,West,269,0.0,0.0,97,0.00,,,0.37,Wunderground v.1.15,2013-04-01 03:15:00,
2013-03-31 23:20:00,52.9,52.1,29.83,West,269,0.0,0.0,97,0.00,,,0.37,Wunderground v.1.15,2013-04-01 03:20:00,
2013-03-31 23:30:00,52.8,52.0,29.83,West,269,0.0,0.0,97,0.00,,,0.37,Wunderground v.1.15,2013-04-01 03:30:00,
2013-03-31 23:35:00,52.8,52.0,29.83,West,269,0.0,0.0,97,0.00,,,0.37,Wunderground v.1.15,2013-04-01 03:35:00,
2013-03-31 23:40:00,52.9,52.1,29.83,West,269,0.0,0.0,97,0.00,,,0.37,Wunderground v.1.15,2013-04-01 03:40:00,
2013-03-31 23:45:00,52.9,52.1,29.83,West,269,0.0,0.0,97,0.00,,,0.37,Wunderground v.1.15,2013-04-01 03:45:00,
2013-03-31 23:50:00,52.9,52.1,29.83,West,269,0.0,0.0,97,0.00,,,0.37,Wunderground v.1.15,2013-04-01 03:50:00,
2013-03-31 23:55:00,52.9,52.1,29.83,West,269,0.0,0.0,97,0.00,,,0.37,Wunderground v.1.15,2013-04-01 03:55:00,